Regional Weather Roundup
Issued by NWS

Home | Current Version | Previous Version | Text Only | Print | Product List | Glossary On
Versions: 1 2 3 4 5 6 7 8 9 10 11 12 13 14 15 16 17 18 19 20 21 22 23 24 25 26 27 28 29 30 31 32 33 34 35 36 37 38 39 40 41 42 43 44 45 46 47 48 49 50
000
ASUS43 KLSX 181307
RWRMO

WEATHER SUMMARY FOR MISSOURI
NATIONAL WEATHER SERVICE SPRINGFIELD MO
700 AM CST WED JAN 18 2017

NOTE: "FAIR" INDICATES FEW OR NO CLOUDS BELOW 12,000 FEET WITH NO
       SIGNIFICANT WEATHER AND/OR OBSTRUCTIONS TO VISIBILITY.
       CURRENT SKY AND/OR WEATHER CONDITIONS ARE NOT AVAILABLE FOR
       CHILLICOTHE AND FARMINGTON.

MOZ001>031-035>038-043-044-053-054-181400-
...NORTHERN AND WESTERN MISSOURI...

CITY           SKY/WX    TMP DP  RH WIND       PRES   REMARKS
KANSAS CTY INT CLOUDY    26  24  92 S9        30.13S FOG     WCI  17
KANSAS C DTWN  FOG       30  29  96 CALM      30.15S VSB 1/4
LEE`S SUMMIT   FOG       31  31 100 S5        30.15S VSB 1/2 WCI  26
ST JOSEPH      FOG       27  26  96 CALM      30.15R VSB 1/4
CHILLICOTHE      N/A     32  32 100 S5        30.17R WCI  27
KIRKSVILLE     CLOUDY    33  33 100 SW10      30.16R FOG     WCI  25

$$
MOZ066>068-077>081-088>096-101>105-181400-
...SOUTHWEST MISSOURI...

CITY           SKY/WX    TMP DP  RH WIND       PRES   REMARKS
SPRINGFIELD    FOG       36  35  96 E7        30.19R VSB 1/2
JOPLIN         FOG       34  34 100 VRB5      30.20R VSB 1/4 WCI  30
BRANSON        FOG       36  36 100 CALM      30.21R VSB 1/8

$$
MOZ032>034-039>042-045>050-055>058-069>072-181400-
...CENTRAL MISSOURI...

CITY           SKY/WX    TMP DP  RH WIND       PRES   REMARKS
COLUMBIA       CLOUDY    36  33  89 S7        30.20R
JEFFERSON CITY CLOUDY    36  31  82 SW3       30.23R
ROLLA          CLOUDY    34  32  92 SW3       30.19R
SEDALIA        CLOUDY    37  36  96 SW7       30.19S
WHITEMAN AFB   CLOUDY    36  36 100 SW7       30.17R FOG
WARRENSBURG    CLOUDY    36  34  93 S6        30.18R FOG
OSAGE BEACH    CLOUDY    37  34  89 S3        30.22R

$$
MOZ051-052-059>065-181400-
...EAST CENTRAL MISSOURI...

CITY           SKY/WX    TMP DP  RH WIND       PRES   REMARKS
ST LOUIS INTL  CLOUDY    37  30  75 NW6       30.21S
SPIRIT OF STL  CLOUDY    36  33  89 SW3       30.21S
ST CHARLES     CLOUDY    37  32  82 W6        30.21S

$$
MOZ072>076-082>087-097>100-106>115-181400-
...SOUTH CENTRAL AND SOUTHEAST MISSOURI...

CITY           SKY/WX    TMP DP  RH WIND       PRES   REMARKS
CAPE GIRARDEAU CLOUDY    40  35  83 NE8       30.23S
FARMINGTON     CLOUDY    36  33  89 CALM      30.22R
POPLAR BLUFF   CLOUDY    41  38  89 N8        30.22S
WEST PLAINS    CLOUDY    35  35 100 N5        30.21R FOG

$$


USA.gov is the U.S. government's official web portal to all federal, state and local government web resources and services.